Wind_Speed
24 25 25 25 25 26 26 25 24 24 24 25 25 25 25 25 24 22 21 21 21 21 21 21 21 21 22 21 21 21 21 21 21 21 21 21 21 21 21 21 21 21 21 20 20 19 18 18 17 18 18 18 17 17 17 18 18 18 19 20 21 22 22 23 23 22 22 21 21
25 25 25 25 25 24 23 22 22 23 23 23 24 24 24 23 22 21 19 19 19 20 21 21 21 21 21 21 21 20 20 21 21 21 21 22 22 22 22 22 22 21 21 20 20 19 19 18 18 18 18 19 18 17 17 17 17 16 17 17 19 19 20 20 21 20 20 20 19
23 23 23 23 23 22 21 20 21 21 22 22 22 22 22 21 21 20 19 18 19 19 20 19 19 19 19 19 20 20 20 20 20 21 21 21 21 21 21 20 20 20 20 20 20 20 20 20 20 20 20 20 20 19 18 17 16 15 14 15 16 17 17 18 19 19 18 18 17
21 21 21 22 21 21 20 20 20 21 21 21 21 21 20 20 20 20 19 19 18 18 18 18 18 18 18 18 18 19 19 19 19 19 19 20 19 19 19 19 19 20 20 20 20 20 20 20 21 21 21 21 21 21 20 19 18 16 14 13 14 15 16 17 18 18 17 16 16
20 20 20 20 20 20 20 20 19 20 21 21 21 20 20 19 19 19 18 18 17 17 18 18 17 17 17 17 17 17 17 18 18 18 18 18 18 19 19 19 19 19 18 18 18 17 18 18 19 20 21 22 22 22 21 21 20 18 16 15 14 14 15 16 16 16 16 16 16
20 20 19 19 19 19 19 19 19 19 20 20 20 19 19 18 18 17 17 16 17 17 17 17 17 16 16 16 16 16 16 16 17 17 17 17 17 17 17 17 16 15 14 14 13 13 13 14 15 16 17 18 18 18 19 19 19 19 18 17 17 17 16 16 16 16 16 16 17
20 19 18 18 18 18 18 18 18 18 18 18 18 17 17 17 16 15 15 16 16 16 16 16 16 16 16 15 15 15 15 15 15 15 15 15 15 14 13 12 11 10 10 9 9 8 8 9 9 10 10 11 11 12 13 14 15 16 17 17 18 18 17 17 17 17 17 17 17
19 18 17 17 17 17 17 17 17 17 16 16 15 15 16 16 16 16 16 17 16 15 15 15 15 15 15 15 14 14 14 13 13 13 13 12 11 10 8 7 7 6 6 6 6 5 5 6 6 7 7 7 8 9 9 10 11 13 13 14 15 16 16 16 17 17 17 17 17
18 17 17 16 16 16 16 16 16 16 15 14 14 14 15 15 16 16 17 16 16 15 15 14 14 14 14 14 14 13 12 12 12 11 10 8 6 5 4 4 4 4 5 5 5 5 6 6 7 7 8 8 8 9 9 10 11 12 12 13 13 14 15 15 16 16 17 17 18
18 18 17 17 16 16 16 16 16 15 15 15 15 15 16 16 16 16 16 16 15 15 14 13 13 13 13 13 12 11 10 10 9 7 6 4 4 3 3 3 3 4 5 5 5 6 6 7 8 9 9 10 9 10 10 11 11 12 12 13 13 13 14 15 15 16 16 17 17
20 19 18 18 18 17 17 17 16 16 17 17 17 17 16 17 17 16 16 15 14 14 13 13 12 12 11 10 9 8 7 7 6 4 4 3 3 3 4 4 5 5 5 5 5 5 6 7 8 9 9 9 9 9 10 10 11 12 12 12 12 13 13 14 14 15 15 16 16
20 20 19 19 19 18 18 18 18 18 18 18 17 17 17 17 16 16 15 14 13 13 12 11 10 9 8 7 6 5 5 4 4 4 4 4 4 4 5 5 5 5 5 4 4 4 5 6 7 7 7 7 7 8 8 9 10 10 11 11 11 11 12 13 14 14 14 14 14
21 20 20 20 19 19 18 18 18 18 18 18 18 17 17 16 15 14 13 12 12 11 11 9 8 7 6 5 5 4 5 5 5 5 5 5 5 5 5 5 6 5 4 3 3 4 5 6 6 5 5 5 5 6 6 7 8 9 10 10 10 11 11 12 13 13 13 12 12
21 21 21 20 20 19 19 19 19 19 19 18 17 17 16 15 14 12 11 11 10 10 9 8 7 6 5 4 4 5 6 6 6 6 6 6 6 6 6 6 6 5 4 4 4 5 5 6 5 5 5 5 5 5 5 6 6 7 8 8 9 9 10 11 11 11 11 11 11
21 21 21 21 20 20 20 20 20 19 19 18 17 16 15 14 12 11 10 10 9 9 8 7 7 6 5 5 5 5 6 7 7 7 7 7 7 7 6 6 6 6 5 5 6 6 7 7 7 7 7 7 7 7 7 7 7 7 7 7 8 8 8 9 9 9 9 9 9
21 21 21 21 21 20 20 20 20 19 18 17 16 14 13 12 11 10 10 9 8 8 7 7 7 7 7 6 6 6 7 7 8 8 7 7 8 7 7 8 7 7 7 7 8 8 9 9 9 9 10 10 10 10 10 10 9 9 9 9 9 8 8 8 8 8 8 8 8
21 21 21 21 21 20 20 20 19 18 17 16 14 13 12 11 10 10 9 8 7 6 6 6 7 8 8 9 8 8 8 8 8 8 8 8 8 8 9 9 9 9 9 9 9 10 10 11 12 12 12 12 12 12 12 12 11 11 11 11 10 10 9 9 9 8 8 8 7
21 21 20 20 20 19 19 18 18 17 15 14 13 12 10 10 9 9 7 6 5 5 6 6 7 8 9 10 10 9 9 9 9 9 9 9 9 9 10 10 10 10 10 11 11 11 11 12 12 13 13 13 12 12 12 11 11 11 11 11 11 11 11 10 10 9 9 9 8
21 20 20 19 19 18 18 17 16 15 14 13 12 11 9 8 8 7 6 5 4 5 6 7 7 8 9 10 10 9 9 9 10 10 10 10 10 10 10 11 11 11 11 11 11 12 12 12 12 12 12 12 11 11 11 11 11 11 11 11 11 11 12 11 11 11 11 10 10
20 20 19 18 18 17 16 15 14 14 13 12 11 10 9 8 7 6 6 5 5 5 6 7 8 9 10 11 10 10 10 10 11 11 11 11 11 11 11 11 12 12 12 12 12 12 12 12 12 12 12 11 11 11 11 10 10 11 11 11 11 11 12 12 12 12 11 11 11
20 20 19 18 17 16 15 14 13 13 12 11 10 10 9 8 7 7 6 6 6 6 7 7 8 9 10 11 11 11 11 11 12 12 12 12 12 12 12 12 12 12 12 12 12 12 12 12 12 12 12 11 11 11 11 11 11 11 11 11 11 11 12 12 11 11 11 11 12
20 20 18 17 16 15 15 14 13 12 12 11 11 10 9 9 8 8 7 7 8 8 8 8 8 9 10 11 12 12 12 12 13 13 13 13 12 12 12 12 11 11 11 12 12 11 11 11 11 11 11 10 10 10 11 11 11 11 12 12 12 12 12 12 11 11 11 12 13
21 20 19 17 16 16 15 14 13 13 12 12 11 11 10 10 9 8 8 8 9 10 10 10 9 10 10 11 12 12 12 12 12 12 12 12 11 11 10 10 10 10 11 12 11 11 11 11 11 11 10 10 10 11 11 11 12 12 12 12 12 12 12 12 12 12 12 13 13
21 20 19 18 17 16 15 15 14 13 13 13 12 11 11 10 10 9 9 9 10 11 11 11 11 11 11 11 11 11 11 11 11 11 11 11 11 10 10 11 11 12 12 12 12 11 11 11 11 10 10 10 11 12 12 12 12 13 13 13 13 13 12 12 12 12 13 13 13
22 21 20 19 18 17 16 15 14 14 14 13 12 12 11 11 10 10 10 10 11 12 12 12 11 11 10 10 10 10 10 10 10 10 10 11 11 11 12 12 13 13 12 10 10 10 10 10 11 11 11 11 12 13 13 13 13 13 13 13 13 13 12 12 13 13 14 14 14
22 21 20 19 18 17 16 15 15 14 14 13 13 12 12 11 11 10 11 11 12 12 12 11 11 11 10 10 10 10 10 10 10 10 11 11 12 12 12 12 12 11 10 9 9 9 10 10 11 11 11 12 13 14 14 14 14 13 13 13 13 13 14 15 15 15 15 15 14
22 21 20 19 18 17 16 16 15 15 14 14 13 13 12 11 11 11 11 11 11 11 11 11 11 11 11 11 11 11 11 11 11 11 12 12 12 12 11 11 10 9 9 8 8 9 10 10 11 11 12 13 14 14 15 14 14 13 13 13 14 15 17 18 17 17 16 15 15
22 21 20 19 18 18 17 16 16 15 15 14 13 13 12 12 11 11 11 10 10 10 10 10 11 11 11 11 11 11 11 11 12 12 12 12 12 12 11 11 10 9 8 8 9 10 11 11 11 12 13 14 14 15 15 14 14 14 14 15 16 17 18 18 18 17 16 16 15
22 21 20 20 19 18 17 17 16 16 15 14 13 13 12 12 11 11 10 10 10 10 10 10 10 10 10 10 11 11 11 11 12 11 12 12 11 11 11 10 10 9 8 8 9 10 11 11 12 12 13 14 14 15 15 15 15 16 16 17 18 18 18 18 17 17 16 16 15
22 21 21 20 19 19 18 17 16 15 15 14 13 12 12 12 11 10 10 10 10 10 10 10 10 10 10 10 10 10 10 10 10 10 10 10 10 11 11 10 10 9 8 8 9 11 12 12 12 12 12 14 14 15 16 16 17 18 18 19 19 19 18 17 16 16 16 16 16
22 22 21 20 20 19 18 17 16 15 14 14 13 13 12 12 11 10 10 9 9 9 9 10 10 11 11 11 10 10 10 9 9 9 9 10 10 11 11 10 9 9 8 9 10 11 12 13 13 12 13 14 15 16 17 17 18 19 19 19 19 18 17 16 16 16 16 16 17
23 22 21 21 20 19 18 17 16 15 15 14 13 13 12 12 11 9 9 8 9 9 10 10 11 11 11 11 11 10 10 9 10 9 9 10 10 11 11 10 9 8 9 10 11 12 13 13 13 13 14 15 16 17 17 18 19 19 19 19 18 17 16 16 16 16 16 17 17
23 22 22 21 20 20 19 18 17 16 15 14 13 13 12 12 10 9 8 8 8 9 10 11 11 12 12 11 11 10 10 10 10 9 9 10 10 10 10 9 9 9 10 11 12 12 13 13 13 14 15 16 16 17 18 18 18 18 17 17 16 16 15 15 15 16 16 16 16
23 23 22 21 21 20 19 18 17 16 15 14 14 13 13 12 11 9 9 8 9 9 10 10 11 11 11 11 10 10 9 9 9 9 9 10 10 10 9 9 9 9 11 11 12 12 13 13 14 14 15 16 17 17 17 17 17 16 16 15 15 14 14 14 14 15 15 15 15
24 23 22 22 21 20 19 18 17 16 15 15 14 14 13 13 11 10 9 9 9 9 9 10 10 10 10 10 9 9 8 8 9 9 10 10 10 10 9 8 9 10 11 12 12 12 13 13 14 15 15 16 17 17 17 16 16 15 15 14 14 14 13 13 13 14 14 14 14
24 23 23 22 21 20 19 18 17 16 16 16 15 15 14 13 12 10 9 9 9 9 10 10 10 10 10 9 9 8 8 9 9 10 11 11 11 10 9 8 9 10 11 12 12 13 13 13 14 14 15 16 17 17 17 16 16 15 15 15 14 14 14 13 13 13 13 13 13
23 22 22 21 20 19 18 17 17 17 17 16 16 15 15 14 12 11 10 9 9 10 10 11 11 11 10 9 9 8 8 9 10 11 12 12 12 11 9 9 10 11 11 12 13 13 13 13 13 14 15 16 17 18 17 17 17 16 16 16 16 15 14 14 13 13 13 13 13
22 21 20 20 19 18 17 17 16 17 17 17 16 16 15 14 13 12 11 10 10 11 11 12 12 11 10 9 9 9 9 10 11 12 12 12 12 11 10 10 11 11 12 12 13 13 13 12 13 13 15 17 18 18 18 18 18 18 18 18 17 16 16 15 14 14 13 13 13
22 21 20 19 18 18 17 17 17 17 17 17 16 16 15 15 14 12 11 10 10 11 12 13 12 12 11 10 10 11 11 12 12 12 12 12 12 11 11 11 12 12 12 12 12 12 12 12 12 13 15 17 19 19 19 19 20 19 19 19 18 18 17 16 15 15 14 13 13
22 21 21 20 19 19 18 18 17 17 17 17 17 17 16 15 14 13 12 11 11 11 12 13 13 12 12 12 12 13 13 13 12 12 11 11 12 12 12 13 14 14 13 12 12 11 11 12 12 13 15 17 19 19 20 20 20 20 20 19 19 19 18 17 16 15 15 14 13
22 22 21 21 20 19 19 18 18 17 17 17 18 17 17 15 14 13 12 11 11 12 13 13 13 13 13 13 14 14 14 13 12 12 11 11 12 13 13 14 15 15 13 12 11 11 11 12 12 13 15 17 18 19 19 20 20 20 20 19 19 19 18 17 16 15 15 14 13
Wind_Direction
229 223 218 217 219 222 223 221 220 218 217 215 212 211 210 209 208 208 208 208 206 205 204 205 207 209 212 214 217 219 221 223 226 228 231 234 238 241 245 249 252 255 257 258 258 257 255 253 251 250 249 248 247 247 248 249 249 250 251 251 252 252 251 250 248 247 245 243 241
222 219 217 218 219 220 220 218 218 218 216 214 213 211 210 209 206 204 203 202 202 203 205 206 209 211 214 217 220 222 225 229 232 235 238 241 244 248 251 254 256 258 258 258 257 255 252 250 248 247 246 245 244 244 245 247 248 249 250 249 249 248 246 245 244 243 241 238 236
216 215 216 217 218 218 217 215 214 212 210 208 206 205 204 201 199 197 195 196 199 202 204 206 209 212 216 219 223 226 230 233 237 240 243 247 249 252 254 256 258 259 259 259 258 256 254 251 249 248 247 247 246 245 246 246 247 247 245 242 241 239 237 235 235 234 232 230 230
213 213 214 216 216 215 213 211 208 205 201 199 197 196 194 193 193 192 192 194 197 201 204 207 210 214 218 221 226 230 234 237 240 244 247 250 253 256 258 260 262 262 262 261 260 258 255 253 250 249 248 248 248 248 248 248 248 246 242 236 231 228 226 226 226 226 226 228 233
213 213 213 214 212 211 209 207 203 199 197 194 192 190 188 189 189 190 192 195 198 202 207 211 213 217 221 225 229 233 237 240 244 247 251 255 258 260 262 263 263 263 261 259 257 255 252 250 248 247 247 247 248 249 250 251 252 251 247 240 233 228 226 226 227 229 234 240 247
213 213 212 211 209 207 206 204 201 199 197 195 193 191 189 189 190 192 194 197 202 207 211 214 218 221 226 230 233 236 240 244 248 251 255 258 260 261 261 260 259 257 256 254 253 251 248 246 244 244 245 247 248 250 252 253 255 256 254 250 244 240 238 239 241 244 249 254 257
211 210 209 207 206 205 203 202 201 200 200 200 199 199 198 199 200 200 202 205 208 211 213 217 221 225 229 233 236 239 243 248 251 253 255 255 255 254 252 252 252 253 254 254 252 249 245 244 244 246 247 247 248 250 252 254 255 257 257 255 251 247 246 247 249 253 256 259 261
205 205 204 203 203 202 201 202 203 203 204 203 203 204 206 207 207 206 206 208 209 210 212 218 221 225 230 234 238 241 245 249 252 252 249 246 244 243 244 249 253 255 254 250 244 237 234 238 240 245 248 247 245 246 248 251 253 255 256 256 252 249 247 248 250 253 256 259 260
197 198 199 199 199 199 200 202 205 205 204 202 200 201 203 203 203 203 203 204 206 209 213 216 221 226 231 235 239 242 245 247 247 245 240 235 232 233 239 246 246 241 236 231 225 222 224 228 230 234 237 238 239 240 241 243 247 250 252 252 251 249 248 250 252 254 254 254 253
191 193 194 194 195 197 198 199 201 201 199 197 197 199 199 199 199 200 201 203 205 207 210 215 221 226 230 235 238 241 242 241 237 230 223 218 216 214 211 214 211 210 212 216 216 220 225 228 231 232 231 231 234 238 240 241 244 247 248 248 248 248 249 250 252 251 249 246 244
186 187 188 187 188 190 192 192 193 194 194 193 194 194 195 195 196 198 200 202 203 204 208 214 219 223 227 231 232 233 232 228 217 203 191 188 192 193 196 200 206 207 208 210 213 221 229 235 237 238 237 234 234 237 240 242 243 245 245 244 244 245 246 247 247 245 242 240 238
180 181 181 182 183 185 186 186 186 187 188 188 188 189 189 191 193 195 197 199 200 203 206 210 214 217 219 219 217 214 207 198 189 186 188 193 196 197 202 207 214 217 216 212 212 222 232 238 241 243 246 246 242 241 242 244 244 244 244 243 242 243 244 244 243 241 240 239 239
177 177 177 178 181 183 183 183 182 182 182 183 184 184 185 187 190 192 194 196 199 202 204 204 205 206 206 203 191 181 177 177 181 188 196 202 207 211 216 219 222 224 223 221 220 225 231 235 240 246 252 255 254 250 249 248 248 247 246 245 244 244 244 243 241 241 241 241 241
177 177 177 178 179 182 184 182 180 179 179 179 180 181 182 184 187 190 193 196 198 200 199 195 191 190 191 187 176 171 173 178 184 191 199 205 211 215 221 226 224 219 216 223 229 231 231 234 241 249 257 263 266 265 262 260 258 256 255 254 252 250 247 245 242 241 240 240 239
177 177 178 178 179 180 181 179 177 176 176 177 178 181 183 184 187 191 194 196 196 197 194 186 178 178 183 182 175 173 175 181 189 196 203 208 208 209 214 220 220 215 212 221 234 239 240 242 248 254 258 262 266 268 268 267 266 265 264 263 261 258 255 250 246 243 240 237 234
176 177 178 178 178 179 178 177 176 176 176 177 180 183 186 188 191 192 193 194 196 194 187 178 172 172 173 169 169 174 180 186 194 202 210 213 213 212 213 218 222 222 223 229 238 245 248 249 251 253 255 257 259 261 261 260 260 260 260 260 259 259 256 253 249 244 238 233 228
176 177 178 179 179 179 179 178 177 177 178 179 182 184 186 188 189 188 189 191 191 183 173 169 171 170 168 165 171 180 188 194 201 210 218 222 224 225 226 228 230 233 236 240 245 250 253 255 256 256 256 256 256 257 257 257 256 255 252 251 250 249 248 247 245 240 235 228 224
176 177 179 180 180 180 180 179 178 178 178 179 179 179 180 181 180 180 181 184 182 173 168 169 173 175 174 174 180 190 200 205 211 218 224 229 233 236 238 240 240 242 245 249 253 256 259 262 265 266 265 262 259 258 259 259 257 254 249 245 243 242 240 237 235 232 228 224 222
176 177 179 180 181 181 180 179 178 176 175 174 173 171 170 171 173 175 176 177 180 178 176 176 178 182 186 188 194 202 210 215 220 225 229 233 237 241 244 247 249 251 253 256 260 264 267 269 271 272 271 268 264 261 259 258 256 252 247 242 239 236 234 231 226 222 219 217 218
176 177 179 180 180 179 178 177 174 172 170 169 168 167 167 168 172 176 176 178 184 186 185 186 187 190 194 199 205 212 218 224 227 229 231 235 238 242 246 250 254 258 261 264 267 269 270 271 271 272 271 269 264 259 255 252 248 245 242 238 234 232 229 226 221 216 213 212 215
176 178 179 179 179 178 176 173 171 169 168 167 168 168 170 172 175 178 180 182 186 186 187 192 195 198 200 205 209 214 220 226 228 230 232 235 238 242 247 252 257 262 265 268 269 270 269 269 270 272 272 268 262 256 251 246 241 237 233 230 227 225 224 223 221 219 217 216 216
176 178 178 178 177 176 173 171 170 169 169 170 171 174 176 178 179 181 184 186 185 185 188 195 203 207 211 213 216 219 223 226 228 231 234 238 242 246 250 254 258 262 264 265 266 267 266 266 268 270 268 262 255 248 243 238 233 230 226 223 221 220 221 223 225 227 226 222 218
176 177 177 176 176 174 173 172 171 172 172 173 175 177 179 181 183 186 188 188 186 187 192 200 209 215 219 222 224 225 228 230 232 234 237 239 243 247 251 255 260 263 265 266 266 265 264 264 263 260 255 247 239 233 229 226 225 224 223 222 220 220 221 224 227 227 224 217 212
176 176 176 176 175 175 174 174 174 175 175 176 178 180 182 184 187 189 190 190 190 192 196 202 209 215 219 222 225 228 231 234 236 238 239 241 244 250 257 262 267 270 271 269 266 263 261 260 258 251 242 232 225 222 221 221 222 223 224 224 223 222 220 219 217 213 208 201 197
177 176 176 176 176 177 177 178 178 178 178 179 181 183 185 187 189 190 191 191 192 195 198 203 207 212 216 219 223 228 232 236 239 242 246 252 259 265 270 272 273 272 268 263 257 254 253 252 250 244 234 224 219 217 218 219 222 224 225 225 223 217 209 201 197 193 189 184 182
179 178 178 178 179 179 180 181 181 181 181 182 184 186 187 189 191 192 192 193 195 199 203 208 213 216 219 223 227 231 234 236 241 247 255 266 274 278 277 274 271 268 264 256 244 239 237 238 238 235 229 221 216 215 215 217 220 222 222 219 213 203 191 183 180 179 177 175 173
180 180 180 181 181 181 182 183 183 183 184 185 187 188 190 192 193 195 196 198 201 205 211 218 223 225 227 231 234 236 238 242 248 256 266 275 280 279 272 263 260 261 260 251 236 226 223 222 223 223 222 220 217 214 213 213 214 214 211 204 196 188 181 177 175 174 173 172 171
182 181 181 182 182 182 183 184 184 185 187 188 190 192 193 195 196 198 201 205 209 213 217 222 226 229 232 236 238 241 245 250 257 265 274 279 278 271 260 251 249 253 255 248 229 217 211 209 211 214 216 216 216 215 213 209 205 201 195 188 183 180 178 177 176 174 173 172 171
183 183 183 182 182 183 184 185 186 188 190 191 193 195 196 197 199 203 207 211 215 216 218 222 224 227 230 233 238 243 248 254 260 266 272 272 265 255 246 242 241 244 247 240 220 207 202 202 203 206 209 211 211 210 207 202 196 189 185 181 178 177 177 176 175 174 173 172 169
185 184 184 183 184 184 185 187 189 190 192 193 195 197 199 201 203 206 210 213 215 219 222 225 224 225 226 229 235 241 247 253 260 264 265 261 249 240 236 236 236 238 236 225 210 201 197 197 198 200 201 203 203 201 198 193 189 184 180 178 177 176 176 175 174 173 172 170 167
186 186 186 185 185 185 186 188 190 191 193 195 197 199 201 203 205 209 214 217 219 221 223 223 223 224 226 230 234 239 246 253 260 262 259 251 239 233 232 232 233 231 222 210 201 197 195 194 193 193 195 198 197 194 191 188 185 182 179 177 176 176 175 174 173 171 170 168 166
187 187 187 186 185 185 186 188 189 191 194 196 199 201 204 206 208 213 218 222 221 219 218 218 220 223 226 229 234 240 247 253 255 253 248 239 232 229 229 230 230 221 208 198 196 195 194 192 190 190 193 195 193 190 188 186 184 183 181 179 178 178 177 175 173 171 169 168 166
188 188 187 186 186 185 186 187 189 192 195 198 201 203 205 207 210 215 218 219 218 217 216 217 220 222 226 230 235 241 247 249 249 243 235 227 223 222 224 226 222 209 197 192 194 195 194 191 189 190 192 193 191 189 187 186 185 184 183 182 181 181 180 178 175 172 170 169 169
188 188 188 187 187 186 186 187 190 192 195 198 201 205 207 210 212 214 215 216 216 217 218 220 223 227 230 234 238 242 245 244 238 229 221 215 214 217 220 222 214 200 191 189 193 194 193 190 188 189 191 192 190 188 187 186 185 185 183 182 182 181 180 179 176 174 173 172 172
189 188 188 188 187 187 187 188 190 193 196 199 202 205 209 213 216 218 218 218 217 217 217 220 225 228 231 233 236 238 237 231 223 215 210 207 209 213 218 218 207 194 186 186 191 192 189 186 186 188 191 190 188 187 186 185 183 181 179 177 175 175 175 174 174 174 174 175 175
188 187 187 187 187 187 187 188 190 193 197 200 203 206 210 214 218 221 223 223 219 216 215 217 221 224 226 227 228 228 224 218 211 207 204 205 208 212 215 211 200 189 184 186 188 187 184 182 184 188 190 189 186 185 183 181 177 174 172 170 170 169 170 170 171 172 174 176 178
189 188 187 186 186 187 189 190 192 195 199 203 206 209 211 214 217 219 222 223 218 214 213 216 218 220 221 222 221 219 216 212 207 205 205 206 209 211 209 203 194 186 184 186 187 184 181 182 186 190 191 187 185 182 180 176 172 170 168 168 168 167 168 168 169 170 173 176 180
190 189 189 189 189 191 192 195 197 200 203 206 209 212 215 217 217 218 220 222 217 213 212 213 215 216 218 219 216 213 210 207 206 206 207 208 209 209 204 196 189 186 185 186 185 182 181 184 189 193 193 188 185 181 178 174 171 169 168 167 166 166 166 167 168 170 172 176 181
195 194 195 195 196 197 198 201 204 207 209 210 212 215 216 218 218 219 221 223 219 214 211 211 212 213 214 213 209 206 204 204 205 206 208 209 209 206 200 191 187 186 186 186 185 184 184 186 191 194 193 190 186 183 179 174 172 171 170 168 165 163 164 166 167 169 171 175 180
201 201 202 204 204 204 205 207 210 212 214 215 216 216 217 217 218 219 220 221 218 215 213 212 211 211 210 208 205 202 201 201 203 205 208 208 206 202 196 190 187 187 187 186 187 187 186 186 187 190 191 190 188 185 181 177 174 172 170 169 166 164 163 165 168 170 171 174 178
206 206 207 209 210 211 212 212 214 215 216 217 219 219 218 217 217 217 216 215 213 213 212 212 211 208 206 205 203 201 200 199 200 203 205 204 201 197 194 190 188 187 187 187 187 186 183 180 180 185 188 189 189 188 186 182 178 174 172 171 170 168 166 166 169 171 173 174 176
Height
798 799 799 799 800 802 802 803 803 804 805 805 806 807 808 808 809 810 810 811 811 812 812 812 813 813 814 815 815 816 816 817 817 818 818 818 819 819 819 820 820 820 821 821 822 822 822 822 822 822 822 823 823 823 823 823 823 824 824 824 824 824 824 824 825 825 825 825 825
797 798 798 799 799 800 800 801 802 803 804 804 805 806 806 807 808 809 809 810 810 810 810 811 812 812 813 814 814 815 815 816 816 816 817 817 817 818 818 819 819 820 820 820 820 820 821 821 821 821 821 821 821 822 822 822 822 822 822 822 822 822 823 823 823 824 824 825 825
796 796 797 797 798 798 799 800 800 801 802 803 804 805 805 806 807 807 808 808 809 809 810 810 811 811 812 813 813 814 814 815 815 815 816 816 816 817 817 817 818 818 818 819 819 819 819 820 820 820 820 820 820 820 820 821 821 821 821 821 821 821 822 822 823 823 823 824 824
795 795 795 796 796 797 798 799 800 800 801 802 803 804 804 805 805 806 806 807 807 808 809 809 810 810 811 812 812 813 813 814 814 815 815 815 815 815 816 816 816 816 816 817 817 817 818 818 818 818 818 819 819 819 819 820 820 820 820 820 821 821 821 821 822 822 822 822 822
793 794 794 795 796 796 797 798 799 800 800 801 802 802 803 804 805 805 805 806 806 807 808 808 809 810 810 811 811 812 812 813 813 813 814 814 814 814 814 815 815 815 815 815 815 816 816 816 816 817 817 817 817 817 818 818 818 819 819 820 820 820 820 820 821 821 821 821 821
792 793 794 794 795 796 797 797 798 799 799 800 801 801 802 803 804 804 805 805 806 806 807 808 808 809 810 810 811 811 811 812 812 812 813 813 813 813 813 813 813 813 813 814 814 814 815 815 815 815 815 815 816 816 816 817 817 817 818 818 819 819 819 819 820 820 820 820 820
792 792 793 794 794 795 796 796 797 798 799 799 800 801 802 802 803 804 805 805 805 806 806 807 808 808 809 809 810 810 810 811 811 811 811 811 811 811 811 811 812 812 812 812 813 813 814 814 814 814 814 815 815 815 815 815 815 816 816 816 817 817 818 818 818 818 819 819 819
791 791 792 793 794 794 795 795 796 797 798 799 800 801 801 802 803 804 805 805 805 805 806 806 807 807 808 808 809 809 810 810 810 810 810 810 810 810 810 810 811 811 811 812 812 812 813 813 813 813 813 814 814 814 814 814 815 815 815 815 815 815 816 816 817 817 817 817 817
790 791 791 792 793 794 795 795 796 797 798 799 800 800 801 801 802 803 803 804 804 805 805 805 806 806 807 807 808 808 809 809 809 809 809 809 809 809 810 810 810 810 811 811 811 812 812 812 812 813 813 813 813 813 813 814 814 814 814 814 814 814 815 815 815 815 816 816 816
789 790 791 792 792 793 794 795 795 796 797 798 799 799 800 800 801 802 802 803 803 804 804 805 805 806 806 807 807 807 808 808 808 808 808 808 809 809 809 809 810 810 810 810 811 811 811 812 812 812 812 812 812 812 812 813 813 813 813 813 813 813 813 814 814 815 815 815 815
788 789 790 790 791 792 793 794 795 795 796 797 798 798 799 800 800 801 802 802 803 804 804 804 805 805 805 806 806 806 806 807 807 807 807 808 808 808 809 809 809 810 810 810 810 810 811 811 811 811 811 811 811 812 812 812 812 812 812 812 812 812 812 813 813 814 814 814 814
787 788 789 790 790 791 792 793 794 795 795 796 797 798 799 799 800 801 801 802 803 803 804 804 804 805 805 805 805 805 806 806 806 807 807 808 808 808 808 809 809 809 810 810 810 810 810 811 811 811 811 811 811 811 811 811 811 811 811 811 811 811 811 812 812 812 813 813 813
787 788 789 789 790 791 792 792 793 794 795 796 797 798 798 799 800 800 801 802 802 803 803 803 804 804 804 805 805 805 805 806 806 807 807 807 808 808 808 808 809 809 809 810 810 810 810 810 811 811 811 811 811 811 811 811 811 811 811 811 811 810 810 811 811 811 812 812 812
787 787 788 789 790 790 791 792 793 794 795 796 796 797 798 799 800 800 801 801 802 802 802 803 803 803 804 804 804 805 805 805 806 806 807 807 807 808 808 808 808 809 809 809 810 810 810 810 810 810 810 810 810 810 810 810 810 810 810 810 810 810 810 810 810 810 810 811 811
787 787 788 789 790 790 791 792 793 794 795 795 796 797 798 799 799 800 800 801 801 801 802 802 802 803 803 804 804 804 805 805 805 806 806 807 807 807 808 808 808 808 809 809 809 809 810 810 810 810 810 810 810 810 810 810 810 810 810 810 810 810 810 810 810 810 810 810 810
786 787 788 789 789 790 791 792 793 794 794 795 796 797 797 798 799 799 800 800 800 801 801 801 802 802 803 803 804 804 804 805 805 805 806 806 807 807 807 808 808 808 808 809 809 809 809 809 810 810 810 810 810 810 810 810 810 810 810 810 810 809 809 809 809 809 809 810 810
786 787 788 789 789 790 791 792 792 793 794 795 796 796 797 797 798 798 799 799 800 800 800 801 801 802 802 803 803 804 804 805 805 805 805 806 806 807 807 807 808 808 808 808 808 808 808 809 809 809 809 809 809 809 809 809 809 809 809 809 809 809 809 809 809 809 809 809 809
786 787 788 788 789 790 791 791 792 793 794 795 795 796 796 797 797 798 798 799 799 799 800 800 800 801 802 802 803 803 804 804 804 805 805 805 806 806 806 807 807 807 807 807 807 807 808 808 808 808 808 808 808 808 808 808 808 808 808 808 808 808 808 808 808 808 809 809 809
786 786 787 788 789 790 790 791 792 793 793 794 795 795 795 796 796 797 797 798 798 799 799 800 800 800 801 802 802 803 803 804 804 804 805 805 805 805 805 806 806 806 806 806 806 807 807 807 807 807 807 807 807 807 807 807 807 807 807 807 807 807 807 807 808 808 808 808 808
785 786 787 788 789 790 790 791 791 792 793 793 794 794 795 795 796 796 797 797 798 798 799 799 800 800 801 801 802 803 803 804 804 804 804 805 805 805 805 805 805 805 805 805 805 805 805 805 805 805 805 805 806 806 806 806 806 806 806 806 806 807 807 807 807 807 807 808 808
785 786 787 788 788 789 790 790 791 791 792 793 793 794 794 795 795 796 796 797 797 798 798 799 799 800 800 801 801 802 802 803 803 803 804 804 804 804 804 804 804 804 804 804 805 805 805 805 805 805 805 805 805 805 805 805 805 805 806 806 806 806 806 806 807 807 807 807 807
785 786 787 787 788 789 789 790 790 791 791 792 793 793 794 794 795 795 796 796 797 797 798 798 799 799 800 800 801 801 802 802 802 803 803 803 803 803 804 804 804 804 804 803 803 804 804 804 804 804 804 804 804 804 804 805 805 805 805 805 805 806 806 806 806 806 806 806 806
785 786 786 787 788 788 789 789 790 790 791 791 792 793 793 794 795 795 795 796 796 797 797 798 798 799 799 800 800 801 801 801 802 802 802 802 803 803 803 803 803 803 803 803 803 803 803 803 803 803 803 803 803 803 804 804 804 805 805 805 805 805 805 805 806 806 806 806 806
785 785 786 787 787 788 788 789 789 790 790 791 791 792 793 793 794 795 795 795 796 796 797 797 798 798 799 799 800 800 800 800 801 801 801 801 802 802 802 802 802 802 802 802 802 802 802 802 802 802 802 802 802 803 803 803 804 804 804 804 805 805 805 805 805 805 805 805 805
784 785 785 786 786 787 787 788 789 789 790 790 791 792 792 793 794 794 795 795 796 796 796 797 797 797 798 798 799 799 799 800 800 800 800 800 801 801 801 801 801 801 801 801 801 801 801 801 801 801 801 802 802 802 802 803 803 803 803 804 804 804 804 804 804 804 805 805 805
783 784 785 785 785 786 787 787 788 789 789 790 790 791 792 792 793 794 794 795 795 796 796 796 796 797 797 798 798 798 799 799 799 799 800 800 800 800 800 800 800 800 800 800 800 800 800 800 800 800 801 801 801 801 802 802 802 802 803 803 803 803 803 803 804 804 804 805 805
783 783 784 784 785 785 786 787 787 788 789 789 790 791 791 792 793 793 794 794 795 795 795 795 796 796 796 797 797 798 798 798 798 799 799 799 799 799 799 799 799 799 799 800 800 800 800 800 800 800 800 800 800 801 801 801 801 802 802 802 802 802 802 803 803 804 804 805 805
782 782 783 784 784 785 785 786 787 787 788 789 789 790 791 791 792 792 793 793 794 794 795 795 795 795 796 796 796 797 797 797 798 798 798 798 798 798 798 798 798 798 798 799 799 799 799 799 799 799 799 800 800 800 800 800 801 801 801 802 802 802 802 802 803 803 804 805 805
781 782 782 783 784 784 785 785 786 787 787 788 789 790 790 791 791 792 792 792 793 793 794 794 794 795 795 795 795 796 796 796 797 797 797 797 797 797 797 797 797 797 798 798 798 798 799 799 799 799 799 799 799 800 800 800 800 800 801 801 801 802 802 803 803 804 804 805 805
780 781 781 782 783 784 784 785 785 786 787 787 788 789 789 790 790 791 791 792 792 792 793 793 794 794 794 794 795 795 795 795 795 796 796 796 796 796 796 796 796 797 797 797 797 797 798 798 798 798 798 798 799 799 799 800 800 800 800 801 801 802 802 803 803 804 804 805 805
780 780 781 781 782 783 783 784 785 785 786 787 788 788 789 789 790 790 790 791 791 791 792 793 793 793 793 794 794 794 794 795 795 795 795 795 795 795 795 795 796 796 796 796 797 797 797 798 798 798 798 798 798 799 799 799 800 800 800 801 801 802 802 803 803 804 804 805 805
779 780 780 781 781 782 783 784 784 785 786 786 787 787 788 788 789 789 790 790 790 791 791 791 792 792 793 793 793 793 793 794 794 794 794 794 794 795 795 795 795 795 795 796 796 796 797 797 797 797 797 797 798 798 799 799 800 800 800 801 802 802 803 803 804 804 805 805 805
778 779 780 780 781 781 782 783 784 784 785 786 786 787 787 788 788 789 789 789 790 790 790 790 791 791 792 792 792 792 793 793 793 793 793 793 794 794 794 795 795 795 795 795 796 796 796 797 797 797 797 797 797 798 798 799 800 800 801 801 802 802 803 803 804 805 805 805 806
778 778 779 780 780 781 782 782 783 784 784 785 785 786 787 787 787 788 788 788 789 789 789 790 790 790 791 791 791 791 792 792 792 792 793 793 793 794 794 794 794 794 794 795 795 796 796 796 796 796 796 797 797 798 798 799 800 800 801 801 802 802 803 803 804 805 805 806 806
777 777 778 779 780 780 781 782 782 783 784 784 785 785 786 786 787 787 787 788 788 788 789 789 790 790 790 790 790 791 791 791 791 791 792 792 793 793 793 794 794 794 794 795 795 795 796 796 796 796 796 796 797 798 798 799 800 800 801 801 802 802 803 803 804 805 805 806 806
776 777 777 778 779 780 780 781 782 782 783 784 784 785 785 785 786 786 787 787 787 787 788 788 789 789 789 790 790 790 790 790 790 791 791 792 792 793 793 793 793 794 794 794 795 795 795 795 795 795 796 796 797 798 798 799 799 800 800 801 801 802 803 803 804 805 805 806 806
776 776 777 778 778 779 780 780 781 782 782 783 783 784 784 785 785 786 786 786 786 787 787 788 788 788 788 789 789 789 790 790 790 790 791 791 792 792 792 793 793 793 794 794 795 795 795 795 795 795 796 796 797 797 798 799 799 800 800 801 801 802 802 803 804 805 805 806 806
776 776 777 777 778 779 780 780 781 781 782 782 783 783 784 784 785 785 785 786 786 786 787 787 787 787 787 788 788 789 789 790 790 790 790 791 791 791 792 793 793 793 794 794 794 794 795 795 795 795 796 796 797 797 798 799 799 800 800 800 801 802 802 803 804 805 805 806 807
775 776 777 777 778 778 779 780 780 780 781 782 782 783 783 784 784 785 785 785 785 785 786 786 786 786 787 787 788 788 789 789 790 790 790 790 791 791 792 792 793 793 793 794 794 794 795 795 795 795 796 796 797 797 798 798 799 800 800 800 801 801 802 803 804 805 805 806 807
775 775 776 777 777 778 778 779 780 780 781 781 782 782 782 783 783 784 784 785 785 785 785 785 786 786 786 787 787 788 788 789 789 790 790 790 790 791 791 792 792 793 793 793 794 794 795 795 795 795 796 796 797 797 798 798 799 799 800 800 801 801 802 803 804 805 805 806 807
774 774 775 776 776 777 777 778 779 779 780 780 781 781 782 782 783 783 784 784 785 785 785 785 785 785 786 786 787 787 788 788 789 789 790 790 790 790 791 792 792 793 793 793 794 795 795 795 795 795 796 796 797 797 798 798 799 799 800 800 801 801 802 803 804 805 805 806 806